EW9013 Weather Reports


time (UTC)temp
C
wind
direction
speed
KPH
gust
KPH
rain 1hr
cm
rain 24hr
cm
rain mn
cm
humidity
%
barometer
mb
20260507070036 -17 0.0 0.0 0.00 0.05 0.00 1016.8
20260507064546 -17 0.0 0.0 0.00 0.05 0.00 1017.0
20260507063024 -17 0.0 0.0 0.00 0.05 0.00 1017.1
20260507061519 -17 0.0 0.0 0.00 0.05 0.00 1017.2
20260507060016 -17 0.0 0.0 0.00 0.05 0.00 1017.5
20260507054510 -17 0.0 0.0 0.00 0.05 0.00 1017.6
20260507053007 -17 0.0 0.0 0.00 0.05 0.00 1017.7
20260507051502 -17 0.0 0.0 0.00 0.05 0.00 1017.7
20260507050057 -17 0.0 0.0 0.00 0.05 0.00 1017.9
20260507044557 24 107 1.6 4.8 0.00 0.08 0.00 81 1018.1
20260507043052 24 101 0.0 4.8 0.00 0.08 0.00 81 1018.3
20260507041550 24 77 1.6 6.4 0.00 0.08 0.00 81 1018.6
20260507040045 24 93 1.6 4.8 0.00 0.08 0.00 81 1018.8
20260507034545 25 92 1.6 8.0 0.00 0.08 0.08 81 1019.0
20260507033045 25 105 1.6 6.4 0.00 0.08 0.08 81 1019.1
20260507031545 25 77 1.6 4.8 0.00 0.08 0.08 81 1019.3
20260507030042 25 129 1.6 4.8 0.00 0.08 0.08 81 1019.3
20260507024543 25 101 0.0 4.8 0.00 0.10 0.08 81 1019.3
20260507023044 25 81 1.6 6.4 0.00 0.10 0.08 81 1019.3
20260507021544 25 88 1.6 6.4 0.00 0.10 0.08 81 1019.2
20260507020053 25 113 1.6 6.4 0.00 0.10 0.08 81 1019.1
20260507014546 25 115 1.6 8.0 0.00 0.10 0.08 80 1019.0
20260507013042 25 77 1.6 8.0 0.00 0.10 0.08 80 1018.9
20260507011541 25 87 1.6 6.4 0.00 0.10 0.08 80 1018.7
20260507010055 25 67 1.6 8.0 0.00 0.10 0.08 80 1018.5
20260507004538 25 128 1.6 6.4 0.00 0.10 0.08 80 1018.7
20260507003039 25 76 3.2 6.4 0.00 0.10 0.08 80 1018.5
20260507001536 25 72 1.6 8.0 0.00 0.10 0.08 79 1018.3
20260506234534 25 120 1.6 9.7 0.00 0.10 0.08 78 1018.0
20260506233034 25 103 1.6 6.4 0.00 0.10 0.08 78 1017.8
20260506231533 26 115 1.6 6.4 0.00 0.10 0.08 77 1017.7
20260506230036 26 136 1.6 6.4 0.00 0.10 0.08 75 1017.5
20260506224537 26 127 1.6 8.0 0.00 0.10 0.08 74 1017.3
20260506223031 26 115 4.8 12.9 0.00 0.10 0.08 74 1017.0
20260506221531 27 76 3.2 11.3 0.00 0.10 0.08 73 1016.8
20260506220036 27 90 6.4 16.1 0.00 0.10 0.08 71 1016.8
20260506214531 27 116 6.4 14.5 0.00 0.10 0.08 69 1016.9
20260506213029 27 61 8.0 17.7 0.00 0.10 0.08 69 1016.8
20260506211530 28 145 8.0 16.1 0.00 0.10 0.08 67 1016.6
20260506210031 28 86 6.4 19.3 0.00 0.10 0.08 66 1016.6
20260506204532 28 119 6.4 17.7 0.00 0.10 0.08 63 1016.6
20260506203025 29 125 8.0 16.1 0.00 0.10 0.08 59 1016.6
20260506201535 29 139 6.4 20.9 0.00 0.10 0.08 61 1016.6
20260506200023 30 98 6.4 17.7 0.00 0.10 0.08 58 1016.7
20260506194520 30 42 9.7 17.7 0.00 0.10 0.08 57 1016.8
20260506193024 30 79 9.7 19.3 0.00 0.10 0.08 56 1016.9
20260506191517 30 82 4.8 22.5 0.00 0.10 0.08 57 1016.8
20260506190023 30 51 6.4 20.9 0.00 0.10 0.08 60 1017.0
20260506184519 30 59 6.4 20.9 0.00 0.10 0.08 62 1017.2
20260506183010 30 79 6.4 16.1 0.00 0.10 0.08 61 1017.2
20260506181507 28 62 11.3 17.7 0.00 0.10 0.08 63 1017.4
20260506180010 28 68 4.8 20.9 0.00 0.10 0.08 72 1017.5
20260506174514 28 68 6.4 19.3 0.00 0.10 0.08 70 1017.7
20260506173005 28 73 4.8 20.9 0.00 0.10 0.08 71 1017.8
20260506171504 30 95 4.8 16.1 0.00 0.10 0.08 67 1017.9
20260506170003 30 84 4.8 17.7 0.00 0.10 0.08 67 1018.2
20260506164600 29 92 9.7 20.9 0.00 0.10 0.08 68 1018.4
20260506163108 28 129 4.8 20.9 0.00 0.10 0.08 73 1018.6
20260506161557 28 111 8.0 19.3 0.00 0.10 0.08 72 1018.8
20260506160108 28 75 4.8 19.3 0.00 0.10 0.08 72 1018.8
20260506154554 29 114 4.8 17.7 0.00 0.10 0.08 71 1018.8
20260506153053 28 178 3.2 11.3 0.05 0.10 0.08 73 1019.0
20260506151556 28 74 3.2 14.5 0.05 0.10 0.08 73 1019.2
20260506150055 28 131 4.8 19.3 0.05 0.10 0.08 75 1019.2
20260506144600 27 97 6.4 16.1 0.05 0.10 0.08 79 1019.4
20260506143051 27 141 4.8 17.7 0.00 0.05 0.03 75 1019.4
20260506141550 28 96 9.7 20.9 0.00 0.05 0.03 72 1019.5
20260506140048 28 79 6.4 24.1 0.00 0.05 0.03 71 1019.4
20260506134547 28 104 8.0 19.3 0.00 0.08 0.03 69 1019.4
20260506133046 28 71 11.3 24.1 0.00 0.08 0.03 70 1019.4
20260506131552 29 73 6.4 17.7 0.00 0.08 0.03 70 1019.4
20260506130043 28 27 9.7 24.1 0.00 0.08 0.03 71 1019.2
20260506124539 28 78 8.0 20.9 0.00 0.08 0.03 71 1019.2
20260506123036 28 57 9.7 17.7 0.00 0.08 0.03 72 1019.4
20260506121532 28 96 9.7 19.3 0.00 0.08 0.03 74 1019.1
20260506120032 28 125 3.2 17.7 0.00 0.08 0.03 74 1019.0
20260506114536 27 57 4.8 16.1 0.00 0.08 0.03 77 1018.9
20260506113026 27 101 6.4 11.3 0.00 0.08 0.03 77 1018.7
20260506111521 26 68 4.8 11.3 0.00 0.08 0.03 81 1018.7
20260506110024 26 58 6.4 12.9 0.00 0.08 0.03 81 1018.6
20260506104516 26 118 3.2 6.4 0.00 0.08 0.03 83 1018.5
20260506103013 25 118 3.2 6.4 0.00 0.08 0.03 85 1018.3
20260506101508 -17 0.0 0.0 0.00 0.08 0.03 1018.3
20260506100007 -17 0.0 0.0 0.00 0.08 0.03 1018.2
20260506094502 -17 0.0 0.0 0.00 0.08 0.03 1018.1
20260506093059 -17 0.0 0.0 0.00 0.08 0.03 1017.8
20260506091555 -17 0.0 0.0 0.00 0.08 0.03 1017.9
20260506090048 -17 0.0 0.0 0.00 0.08 0.03 1017.7
20260506084544 -17 0.0 0.0 0.00 0.08 0.03 1017.6
20260506083039 -17 0.0 0.0 0.00 0.08 0.03 1017.4
20260506081539 -17 0.0 0.0 0.00 0.08 0.03 1017.5
20260506073028 -17 0.0 0.0 0.00 0.08 0.03 1017.5
20260506071524 -17 0.0 0.0 0.00 0.08 0.03 1017.6